period_start,C,m1,H,J0,J1,J2,J3,J4,J5,JA,JB,JC,JD,JJ,JK,JN,#
2014-04-19 00:00:34,0.12,1.51,0.00,17.63,24.13,26.45,6.10,32.29,1015.20,2050.03,2872.17,2930.03,3138.52,349.75,329.16,20.62,0000 0000 0000 0000 000000
2014-04-19 00:01:34,0.12,1.51,0.00,17.62,24.14,26.46,6.12,32.38,1015.17,2050.05,2872.06,2929.96,3138.20,349.58,329.10,20.63,0000 0000 0000 0000 000000
2014-04-19 00:02:34,0.09,1.51,0.00,17.63,24.14,26.44,6.13,32.42,1015.16,2050.03,2871.97,2929.67,3138.07,349.71,329.21,20.63,0000 0000 0000 0000 000000
2014-04-19 00:03:35,0.09,1.52,0.00,17.65,24.15,26.38,6.13,32.50,1015.16,2050.02,2871.74,2929.28,3137.98,349.61,329.28,20.64,0000 0000 0000 0000 000000
2014-04-19 00:04:35,0.15,1.52,0.00,17.66,24.15,26.37,5.95,32.54,1015.15,2050.03,2871.29,2929.10,3137.70,349.15,328.48,20.64,0000 0000 0000 0000 000000
2014-04-19 00:05:35,0.15,1.52,0.00,17.63,24.15,26.37,6.17,32.29,1015.15,2050.02,2871.10,2929.03,3137.30,350.67,330.10,20.65,0000 0000 0000 0000 000000
2014-04-19 00:06:36,0.10,1.52,0.00,17.60,24.15,26.27,6.12,32.58,1015.15,2050.02,2870.96,2928.99,3137.11,349.39,328.70,20.65,0000 0000 0000 0000 000000
2014-04-19 00:07:36,0.07,1.52,0.00,17.57,24.15,26.25,6.13,32.46,1015.15,2050.03,2870.53,2928.90,3137.04,349.72,329.28,20.66,0000 0000 0000 0000 000000
2014-04-19 00:08:36,0.12,1.52,0.00,17.54,24.15,26.23,6.12,32.21,1015.13,2050.01,2870.20,2928.45,3137.00,350.11,329.67,20.67,0000 0000 0000 0000 000000
2014-04-19 00:09:36,0.14,1.52,0.00,17.55,24.17,26.25,6.10,32.25,1015.15,2050.01,2870.06,2928.18,3136.79,349.81,329.29,20.67,0000 0000 0000 0000 000000
2014-04-19 00:10:37,0.12,1.52,0.00,17.59,24.17,26.25,6.21,32.33,1015.11,2050.03,2869.96,2928.07,3136.33,350.28,329.87,20.68,0000 0000 0000 0000 000000
2014-04-19 00:11:37,0.12,1.52,0.00,17.61,24.17,26.24,6.07,32.42,1015.10,2050.04,2869.60,2928.02,3136.12,349.67,329.21,20.68,0000 0000 0000 0000 000000
2014-04-19 00:12:37,0.11,1.52,0.00,17.63,24.17,26.29,6.22,32.50,1015.10,2050.03,2869.23,2927.97,3136.03,350.53,329.96,20.69,0000 0000 0000 0000 000000
2014-04-19 00:13:37,0.07,1.52,0.00,17.64,24.17,26.36,6.04,32.42,1015.09,2050.02,2869.08,2927.74,3135.93,349.19,328.66,20.70,0000 0000 0000 0000 000000
2014-04-19 00:14:38,0.12,1.52,0.00,17.67,24.17,26.32,6.27,32.42,1015.11,2050.01,2869.00,2927.36,3135.52,350.32,329.27,20.70,0000 0000 0000 0000 000000
2014-04-19 00:15:38,0.15,1.52,0.00,17.68,24.18,26.38,6.19,32.42,1015.10,2050.00,2868.67,2927.15,3135.22,349.94,329.77,20.71,0000 0000 0000 0000 000000
2014-04-19 00:16:38,0.14,1.53,0.00,17.71,24.19,26.43,6.21,32.33,1015.09,2050.01,2868.27,2927.05,3135.08,349.86,329.23,20.71,0000 0000 0000 0000 000000
2014-04-19 00:17:38,0.10,1.53,0.00,17.71,24.20,26.44,6.32,32.38,1015.08,2050.00,2868.10,2926.94,3135.02,351.07,330.36,20.72,0000 0000 0000 0000 000000
2014-04-19 00:18:39,0.06,1.53,0.00,17.71,24.20,26.36,6.21,32.42,1015.14,2050.01,2867.99,2926.72,3135.00,350.39,329.76,20.73,0000 0000 0000 0000 000000
2014-04-19 00:19:39,0.10,1.53,0.00,17.69,24.20,26.30,6.05,32.54,1015.15,2050.00,2867.58,2926.36,3134.87,349.05,328.50,20.73,0000 0000 0000 0000 000000
2014-04-19 00:20:39,0.17,1.53,0.00,17.69,24.20,26.26,6.10,32.58,1015.13,2050.00,2867.22,2926.13,3134.42,349.48,328.91,20.74,0000 0000 0000 0000 000000
2014-04-19 00:21:40,0.17,1.53,0.00,17.70,24.20,26.26,6.08,32.63,1015.13,2050.00,2867.07,2926.05,3134.15,349.86,328.88,20.74,0000 0000 0000 0000 000000
2014-04-19 00:22:40,0.09,1.53,0.00,17.70,24.21,26.19,6.30,32.54,1015.13,2050.00,2866.71,2925.98,3134.05,350.35,329.44,20.75,0000 0000 0000 0000 000000
2014-04-19 00:23:40,0.10,1.53,0.00,17.71,24.22,26.16,6.12,32.54,1015.14,2050.00,2866.30,2925.73,3133.94,349.93,328.90,20.75,0000 0000 0000 0000 000000
2014-04-19 00:24:41,0.15,1.53,0.00,17.75,24.22,26.17,6.24,32.42,1015.13,2050.00,2866.11,2925.38,3133.65,349.84,329.18,20.76,0000 0000 0000 0000 000000
2014-04-19 00:25:41,0.16,1.53,0.00,17.79,24.22,26.20,6.21,32.50,1015.13,2050.00,2866.02,2925.14,3133.25,350.23,329.80,20.77,0000 0000 0000 0000 000000
2014-04-19 00:26:41,0.12,1.53,0.00,17.81,24.22,26.24,6.18,32.42,1015.11,2050.00,2865.95,2925.05,3133.09,350.40,329.63,20.77,0000 0000 0000 0000 000000
2014-04-19 00:27:41,0.07,1.53,0.00,17.83,24.22,26.25,6.24,32.42,1015.10,2050.00,2865.50,2924.97,3133.02,350.64,329.96,20.78,0000 0000 0000 0000 000000
2014-04-19 00:28:42,0.09,1.53,0.00,17.84,24.23,26.30,6.04,32.58,1015.10,2050.00,2865.18,2924.86,3132.91,349.27,328.53,20.78,0000 0000 0000 0000 000000
2014-04-19 00:29:42,0.13,1.53,0.00,17.87,24.24,26.32,5.96,32.33,1015.11,2050.00,2865.06,2924.43,3132.46,350.34,329.25,20.79,0000 0000 0000 0000 000000
2014-04-19 00:30:42,0.16,1.54,0.00,17.88,24.25,26.37,6.13,32.58,1015.14,2050.00,2864.75,2924.16,3132.17,350.40,330.12,20.80,0000 0000 0000 0000 000000
2014-04-19 00:31:42,0.17,1.54,0.00,17.88,24.25,26.39,6.21,32.58,1015.15,2050.00,2864.28,2924.05,3132.06,350.42,329.48,20.80,0000 0000 0000 0000 000000
2014-04-19 00:32:43,0.11,1.54,0.00,17.87,24.25,26.36,6.08,32.58,1015.15,2050.00,2864.10,2924.00,3131.96,350.16,328.88,20.81,0000 0000 0000 0000 000000
2014-04-19 00:33:43,0.07,1.54,0.00,17.85,24.25,26.32,6.32,32.54,1015.15,2050.00,2864.02,2923.83,3131.55,350.02,329.43,20.81,0000 0000 0000 0000 000000
2014-04-19 00:34:43,0.11,1.54,0.00,17.85,24.25,26.28,6.17,32.33,1015.15,2050.00,2863.88,2923.47,3131.23,349.64,328.89,20.82,0000 0000 0000 0000 000000
2014-04-19 00:35:43,0.16,1.54,0.00,17.85,24.25,26.26,6.06,32.38,1015.15,2050.00,2863.44,2923.22,3131.08,349.75,329.00,20.82,0000 0000 0000 0000 000000
2014-04-19 00:36:44,0.13,1.54,0.00,17.87,24.27,26.29,6.08,32.54,1015.15,2049.99,2863.18,2923.08,3131.03,349.44,328.67,20.83,0000 0000 0000 0000 000000
2014-04-19 00:37:44,0.06,1.54,0.00,17.89,24.27,26.28,5.99,32.42,1015.16,2049.99,2863.07,2923.02,3130.91,348.70,327.96,20.84,0000 0000 0000 0000 000000
2014-04-19 00:38:44,0.06,1.54,0.00,17.92,24.27,26.25,6.00,32.54,1015.15,2049.99,2862.83,2922.91,3130.48,349.39,328.57,20.84,0000 0000 0000 0000 000000
2014-04-19 00:39:45,0.16,1.54,0.00,17.94,24.27,26.30,6.12,32.50,1015.15,2049.97,2862.36,2922.45,3130.18,350.00,329.00,20.85,0000 0000 0000 0000 000000
2014-04-19 00:40:45,0.19,1.54,0.00,17.96,24.28,26.33,6.30,32.25,1015.15,2049.97,2862.13,2922.17,3130.07,350.40,329.48,20.85,0000 0000 0000 0000 000000
2014-04-19 00:41:45,0.12,1.54,0.00,17.98,24.28,26.40,6.18,32.63,1015.15,2049.99,2862.04,2922.06,3130.00,350.42,329.08,20.86,0000 0000 0000 0000 000000
2014-04-19 00:42:45,0.05,1.54,0.00,17.98,24.29,26.39,6.23,32.33,1015.15,2049.97,2861.84,2922.01,3129.68,350.13,329.20,20.87,0000 0000 0000 0000 000000
2014-04-19 00:43:45,0.10,1.54,0.00,18.01,24.30,26.43,6.04,32.33,1015.15,2049.97,2861.47,2921.98,3129.30,349.95,329.00,20.87,0000 0000 0000 0000 000000
2014-04-19 00:44:46,0.11,1.55,0.00,18.02,24.30,26.53,6.15,32.38,1015.15,2049.95,2861.20,2921.74,3129.12,350.01,329.05,20.88,0000 0000 0000 0000 000000
2014-04-19 00:45:46,0.14,1.55,0.00,18.02,24.30,26.56,6.07,32.58,1015.15,2049.92,2861.06,2921.32,3129.04,349.66,328.72,20.88,0000 0000 0000 0000 000000
2014-04-19 00:46:46,0.09,1.55,0.00,18.04,24.30,26.59,6.17,32.50,1015.15,2049.91,2860.84,2921.11,3128.97,350.32,328.94,20.89,0000 0000 0000 0000 000000
2014-04-19 00:47:47,0.10,1.55,0.00,18.04,24.31,26.58,6.24,32.42,1015.15,2049.92,2860.42,2921.04,3128.69,350.10,329.46,20.90,0000 0000 0000 0000 000000
2014-04-19 00:48:47,0.15,1.55,0.00,18.03,24.32,26.58,6.13,32.33,1015.15,2049.96,2860.19,2921.00,3128.28,350.03,329.32,20.90,0000 0000 0000 0000 000000
2014-04-19 00:49:47,0.11,1.55,0.00,18.00,24.32,26.52,6.18,32.38,1015.15,2049.98,2860.07,2920.86,3128.10,350.32,329.57,20.91,0000 0000 0000 0000 000000
2014-04-19 00:50:48,0.11,1.55,0.00,18.00,24.32,26.42,6.21,32.54,1015.15,2049.98,2859.89,2920.42,3128.01,349.37,328.35,20.91,0000 0000 0000 0000 000000
2014-04-19 00:51:48,0.16,1.55,0.00,17.99,24.32,26.41,6.02,32.54,1015.15,2049.98,2859.39,2920.15,3127.89,349.82,329.14,20.92,0000 0000 0000 0000 000000
2014-04-19 00:52:48,0.15,1.55,0.00,18.00,24.33,26.40,6.27,32.33,1015.15,2049.94,2859.17,2920.05,3127.47,350.92,329.93,20.92,0000 0000 0000 0000 000000
2014-04-19 00:53:48,0.08,1.55,0.00,18.02,24.34,26.41,6.23,32.54,1015.15,2049.94,2859.05,2920.01,3127.17,350.23,329.25,20.93,0000 0000 0000 0000 000000
2014-04-19 00:54:49,0.05,1.55,0.00,18.05,24.34,26.42,6.05,32.54,1015.15,2049.91,2858.77,2919.79,3127.05,350.62,329.39,20.94,0000 0000 0000 0000 000000
2014-04-19 00:55:49,0.15,1.55,0.00,18.07,24.35,26.50,6.05,32.38,1015.15,2049.87,2858.32,2919.34,3126.97,349.88,328.87,20.94,0000 0000 0000 0000 000000
2014-04-19 00:56:49,0.15,1.55,0.00,18.09,24.35,26.63,6.16,32.25,1015.12,2049.84,2858.14,2919.13,3126.65,349.93,328.88,20.95,0000 0000 0000 0000 000000
2014-04-19 00:57:50,0.11,1.55,0.00,18.11,24.35,26.60,6.03,32.54,1015.12,2049.76,2858.00,2919.04,3126.27,348.93,328.09,20.95,0000 0000 0000 0000 000000
2014-04-19 00:58:50,-0.00,1.55,0.00,18.11,24.36,26.60,6.21,32.50,1015.15,2049.60,2857.72,2919.00,3126.09,350.07,329.06,20.96,0000 0000 0000 0000 000000
2014-04-19 00:59:50,-0.02,1.55,0.00,18.12,24.37,26.67,6.31,32.54,1015.15,2049.66,2857.36,2918.83,3126.03,351.06,329.94,20.97,0000 0000 0000 0000 000000
2014-04-19 01:00:50,0.15,1.56,0.00,18.13,24.37,26.67,6.03,32.63,1015.14,2049.64,2857.14,2918.43,3125.93,349.98,329.04,20.97,0000 0000 0000 0000 000000
2014-04-19 01:01:51,0.14,1.56,0.00,18.14,24.37,26.72,6.13,32.29,1015.15,2049.49,2857.05,2918.16,3125.51,350.27,329.19,20.98,0000 0000 0000 0000 000000
2014-04-19 01:02:51,0.06,1.56,0.00,18.15,24.38,26.69,6.13,32.46,1015.09,2049.48,2856.88,2918.05,3125.19,350.40,329.25,20.98,0000 0000 0000 0000 000000
2014-04-19 01:03:51,0.07,1.56,0.00,18.16,24.39,26.67,6.04,32.33,1015.06,2049.43,2856.40,2917.99,3125.07,349.54,328.41,20.99,0000 0000 0000 0000 000000
2014-04-19 01:04:52,0.04,1.56,0.00,18.15,24.40,26.69,6.22,32.54,1014.95,2049.32,2856.14,2917.83,3124.97,350.25,329.06,20.99,0000 0000 0000 0000 000000
2014-04-19 01:05:52,0.05,1.56,0.00,18.16,24.40,26.73,6.05,32.46,1014.81,2049.19,2856.02,2917.37,3124.58,350.10,328.86,21.00,0000 0000 0000 0000 000000
2014-04-19 01:06:52,0.07,1.56,0.00,18.16,24.40,26.82,6.13,32.33,1014.82,2049.11,2855.85,2917.13,3124.21,350.15,328.31,21.01,0000 0000 0000 0000 000000
2014-04-19 01:07:52,0.07,1.56,0.00,18.17,24.40,26.87,6.16,32.46,1014.77,2049.06,2855.37,2917.04,3124.08,350.29,328.84,21.01,0000 0000 0000 0000 000000
2014-04-19 01:08:53,0.07,1.56,0.00,18.17,24.42,26.87,5.98,32.54,1014.70,2049.09,2855.13,2916.98,3124.02,349.16,328.21,21.02,0000 0000 0000 0000 000000
2014-04-19 01:09:53,0.08,1.56,0.00,18.19,24.42,26.94,6.20,32.54,1014.71,2049.05,2855.01,2916.62,3123.67,349.59,328.29,21.02,0000 0000 0000 0000 000000
2014-04-19 01:10:53,0.15,1.56,0.00,18.20,24.42,26.95,6.09,32.71,1014.69,2049.06,2854.68,2916.24,3123.25,349.70,328.34,21.03,0000 0000 0000 0000 000000
2014-04-19 01:11:53,0.20,1.56,0.00,18.19,24.42,26.97,6.16,32.58,1014.66,2049.04,2854.28,2916.08,3123.09,349.73,328.42,21.04,0000 0000 0000 0000 000000
2014-04-19 01:12:54,0.11,1.56,0.00,18.20,24.43,26.97,6.20,32.71,1014.68,2049.03,2854.10,2916.03,3123.02,349.23,327.95,21.04,0000 0000 0000 0000 000000
2014-04-19 01:13:54,0.03,1.56,0.00,18.20,24.44,26.93,6.25,32.63,1014.77,2049.02,2853.97,2915.92,3122.73,350.37,329.05,21.05,0000 0000 0000 0000 000000
2014-04-19 01:14:54,0.12,1.56,0.00,18.22,24.45,27.00,6.06,32.33,1014.75,2049.01,2853.55,2915.48,3122.33,349.43,328.14,21.05,0000 0000 0000 0000 000000
2014-04-19 01:15:54,0.24,1.56,0.00,18.22,24.45,27.04,6.10,32.50,1014.67,2049.00,2853.21,2915.17,3122.12,350.26,328.90,21.06,0000 0000 0000 0000 000000
2014-04-19 01:16:55,0.13,1.56,0.00,18.24,24.45,26.98,6.22,32.54,1014.75,2049.00,2853.07,2915.06,3122.04,350.66,329.48,21.07,0000 0000 0000 0000 000000
2014-04-19 01:17:55,0.05,1.57,0.00,18.23,24.47,26.97,6.07,32.29,1014.77,2049.00,2852.95,2915.00,3121.85,350.00,328.73,21.07,0000 0000 0000 0000 000000
2014-04-19 01:18:55,0.09,1.57,0.00,18.24,24.47,27.00,6.18,32.42,1014.75,2049.00,2852.45,2914.68,3121.36,349.69,328.44,21.08,0000 0000 0000 0000 000000
2014-04-19 01:19:55,0.25,1.57,0.00,18.26,24.47,27.05,6.05,32.67,1014.73,2049.00,2852.16,2914.27,3121.13,349.45,328.26,21.08,0000 0000 0000 0000 000000
2014-04-19 01:20:55,0.16,1.57,0.00,18.28,24.47,27.02,6.17,32.71,1014.83,2049.00,2851.94,2914.08,3121.03,349.47,328.14,21.09,0000 0000 0000 0000 000000
2014-04-19 01:21:55,0.09,1.57,0.00,18.29,24.49,27.00,6.24,32.42,1014.91,2049.00,2851.50,2914.02,3120.73,350.55,329.16,21.09,0000 0000 0000 0000 000000
2014-04-19 01:22:56,0.16,1.57,0.00,18.29,24.50,27.06,6.13,32.50,1015.01,2049.00,2851.18,2913.89,3120.29,350.44,328.86,21.10,0000 0000 0000 0000 000000
2014-04-19 01:23:56,0.15,1.57,0.00,18.29,24.50,27.13,6.16,32.38,1014.99,2049.00,2851.04,2913.46,3120.10,350.54,329.19,21.11,0000 0000 0000 0000 000000
2014-04-19 01:24:56,0.16,1.57,0.00,18.30,24.50,27.14,6.31,32.46,1014.70,2049.00,2850.69,2913.17,3120.03,350.50,329.05,21.11,0000 0000 0000 0000 000000
2014-04-19 01:25:57,0.14,1.57,0.00,18.31,24.51,27.13,6.11,32.67,1014.72,2049.00,2850.26,2913.07,3119.86,349.75,328.33,21.12,0000 0000 0000 0000 000000
2014-04-19 01:26:57,0.12,1.57,0.00,18.33,24.52,27.11,6.08,32.42,1014.69,2048.99,2850.09,2913.00,3119.38,349.58,328.02,21.12,0000 0000 0000 0000 000000
2014-04-19 01:27:57,0.08,1.57,0.00,18.34,24.52,27.16,6.08,32.46,1014.74,2048.98,2849.95,2912.68,3119.14,349.99,328.90,21.13,0000 0000 0000 0000 000000
2014-04-19 01:28:57,0.17,1.57,0.00,18.35,24.52,27.17,6.10,32.42,1014.70,2048.99,2849.74,2912.29,3119.04,349.85,328.21,21.14,0000 0000 0000 0000 000000
2014-04-19 01:29:58,0.14,1.58,0.00,18.35,24.53,27.17,6.04,32.71,1014.68,2048.99,2849.30,2912.11,3118.84,348.86,327.75,21.14,0000 0000 0000 0000 000000
2014-04-19 01:30:58,0.14,1.58,0.00,18.37,24.54,27.16,6.21,32.83,1014.71,2048.99,2849.08,2912.04,3118.38,350.77,329.22,21.15,0000 0000 0000 0000 000000
2014-04-19 01:31:58,0.11,1.58,0.00,18.38,24.55,27.17,6.18,32.75,1014.74,2048.98,2848.86,2911.79,3118.14,349.87,328.37,21.15,0000 0000 0000 0000 000000
2014-04-19 01:32:58,0.17,1.58,0.00,18.39,24.55,27.16,6.30,32.71,1014.68,2048.96,2848.37,2911.34,3118.00,350.12,328.57,21.16,0000 0000 0000 0000 000000
2014-04-19 01:33:59,0.18,1.58,0.00,18.41,24.55,27.17,6.26,32.54,1014.67,2048.93,2848.12,2911.13,3117.51,350.99,329.37,21.17,0000 0000 0000 0000 000000
2014-04-19 01:34:59,0.16,1.58,0.00,18.43,24.57,27.22,6.09,32.29,1014.67,2048.94,2847.98,2911.03,3117.20,349.56,328.01,21.17,0000 0000 0000 0000 000000
2014-04-19 01:35:59,0.08,1.58,0.00,18.44,24.57,27.16,6.21,32.33,1014.68,2048.96,2847.58,2910.93,3117.07,350.75,329.11,21.18,0000 0000 0000 0000 000000
2014-04-19 01:36:59,0.11,1.58,0.00,18.44,24.57,27.24,6.17,32.54,1014.68,2048.96,2847.23,2910.59,3117.02,349.72,328.14,21.18,0000 0000 0000 0000 000000
2014-04-19 01:37:59,0.17,1.58,0.00,18.44,24.58,27.24,6.26,32.46,1014.68,2048.96,2847.07,2910.23,3116.73,350.61,328.97,21.19,0000 0000 0000 0000 000000
2014-04-19 01:39:00,0.16,1.58,0.00,18.44,24.59,27.20,6.13,32.50,1014.67,2048.93,2846.89,2910.08,3116.28,349.72,328.35,21.19,0000 0000 0000 0000 000000
2014-04-19 01:40:00,0.10,1.58,0.00,18.44,24.60,27.23,6.10,32.46,1014.68,2048.85,2846.44,2910.00,3116.10,349.52,328.38,21.20,0000 0000 0000 0000 000000
2014-04-19 01:41:00,0.02,1.58,0.00,18.47,24.60,27.18,6.23,32.63,1014.68,2048.80,2846.16,2909.70,3116.02,350.50,328.66,21.21,0000 0000 0000 0000 000000
2014-04-19 01:42:00,0.13,1.58,0.00,18.47,24.61,27.18,6.08,32.46,1014.67,2048.83,2846.04,2909.34,3115.74,349.72,328.15,21.21,0000 0000 0000 0000 000000
2014-04-19 01:43:00,0.17,1.59,0.00,18.48,24.62,27.22,6.22,32.63,1014.66,2048.71,2845.80,2909.12,3115.33,350.33,328.67,21.22,0000 0000 0000 0000 000000
2014-04-19 01:44:01,0.05,1.59,0.00,18.49,24.62,27.28,6.20,32.58,1014.68,2048.70,2845.33,2909.03,3115.12,350.41,328.74,21.22,0000 0000 0000 0000 000000
2014-04-19 01:45:01,0.10,1.59,0.00,18.49,24.62,27.25,6.20,32.50,1014.66,2048.50,2845.12,2908.97,3115.04,349.73,327.80,21.23,0000 0000 0000 0000 000000
2014-04-19 01:46:01,-0.09,1.59,0.00,18.49,24.63,27.24,6.14,32.63,1014.66,2048.43,2845.00,2908.69,3114.84,350.20,328.59,21.24,0000 0000 0000 0000 000000
2014-04-19 01:47:01,0.12,1.59,0.00,18.49,24.64,27.28,6.22,32.58,1014.67,2048.31,2844.54,2908.28,3114.34,350.57,328.87,21.24,0000 0000 0000 0000 000000
2014-04-19 01:48:02,0.09,1.59,0.00,18.49,24.65,27.25,6.13,32.50,1014.66,2048.18,2844.20,2908.10,3114.12,349.71,328.27,21.25,0000 0000 0000 0000 000000
2014-04-19 01:49:02,0.02,1.59,0.00,18.51,24.65,27.21,6.18,32.46,1014.66,2048.11,2844.07,2908.02,3114.02,350.55,329.19,21.25,0000 0000 0000 0000 000000
2014-04-19 01:50:02,0.02,1.59,0.00,18.52,24.66,27.23,6.14,32.58,1014.66,2048.09,2843.77,2907.73,3113.70,349.99,328.36,21.26,0000 0000 0000 0000 000000
2014-04-19 01:51:02,0.17,1.59,0.00,18.53,24.67,27.23,6.16,32.54,1014.65,2048.08,2843.40,2907.31,3113.29,349.77,327.96,21.26,0000 0000 0000 0000 000000
2014-04-19 01:52:03,0.20,1.59,0.00,18.55,24.67,27.26,6.08,32.42,1014.65,2048.04,2843.15,2907.11,3113.10,349.37,328.03,21.27,0000 0000 0000 0000 000000
2014-04-19 01:53:03,0.07,1.59,0.00,18.55,24.67,27.23,6.06,32.50,1014.66,2048.03,2842.88,2907.03,3112.95,350.21,328.46,21.28,0000 0000 0000 0000 000000
2014-04-19 01:54:03,0.08,1.59,0.00,18.54,24.69,27.22,6.13,32.46,1014.66,2048.02,2842.51,2906.88,3112.67,349.57,327.88,21.28,0000 0000 0000 0000 000000
2014-04-19 01:55:03,0.13,1.59,0.00,18.54,24.70,27.26,6.15,32.46,1014.66,2048.02,2842.24,2906.49,3112.28,350.34,328.60,21.29,0000 0000 0000 0000 000000
2014-04-19 01:56:04,0.22,1.59,0.00,18.56,24.70,27.29,6.17,32.46,1014.66,2048.00,2842.08,2906.18,3112.10,349.34,327.66,21.29,0000 0000 0000 0000 000000
2014-04-19 01:57:04,0.09,1.59,0.00,18.57,24.70,27.30,6.07,32.58,1014.66,2048.00,2841.92,2906.06,3111.99,349.77,328.04,21.30,0000 0000 0000 0000 000000
2014-04-19 01:58:04,0.08,1.59,0.00,18.58,24.72,27.31,6.08,32.50,1014.66,2048.00,2841.52,2905.95,3111.72,349.64,327.91,21.31,0000 0000 0000 0000 000000
2014-04-19 01:59:05,0.14,1.59,0.00,18.60,24.72,27.30,6.19,32.54,1014.66,2048.00,2841.19,2905.60,3111.28,350.02,328.09,21.31,0000 0000 0000 0000 000000
2014-04-19 02:00:05,0.22,1.60,0.00,18.60,24.72,27.40,6.16,32.54,1014.68,2048.00,2841.06,2905.25,3111.10,350.42,328.84,21.32,0000 0000 0000 0000 000000
2014-04-19 02:01:05,0.12,1.60,0.00,18.60,24.73,27.41,6.00,32.33,1014.67,2048.00,2840.69,2905.09,3110.93,349.27,327.54,21.32,0000 0000 0000 0000 000000
2014-04-19 02:02:05,0.14,1.60,0.00,18.60,24.74,27.43,6.06,32.42,1014.66,2048.00,2840.26,2905.01,3110.46,349.76,328.00,21.33,0000 0000 0000 0000 000000
2014-04-19 02:03:06,0.15,1.60,0.00,18.62,24.75,27.44,6.15,32.33,1014.66,2048.00,2840.09,2904.86,3110.17,350.62,328.78,21.33,0000 0000 0000 0000 000000
2014-04-19 02:04:06,0.10,1.60,0.00,18.62,24.75,27.42,6.11,32.42,1014.66,2048.00,2839.78,2904.41,3110.05,350.18,327.93,21.34,0000 0000 0000 0000 000000
2014-04-19 02:05:06,0.21,1.60,0.00,18.60,24.76,27.44,6.18,32.54,1014.66,2048.00,2839.30,2904.15,3109.85,350.01,328.47,21.35,0000 0000 0000 0000 000000
2014-04-19 02:06:06,0.16,1.60,0.00,18.59,24.77,27.40,6.26,32.50,1014.66,2048.00,2839.04,2904.02,3109.40,350.69,328.02,21.35,0000 0000 0000 0000 000000
2014-04-19 02:07:07,0.13,1.60,0.00,18.61,24.77,27.37,6.13,32.54,1014.66,2047.99,2838.62,2903.68,3109.14,349.75,327.98,21.36,0000 0000 0000 0000 000000
2014-04-19 02:08:07,0.20,1.60,0.00,18.63,24.78,27.43,6.13,32.46,1014.66,2047.99,2838.29,2903.32,3109.04,349.74,327.88,21.36,0000 0000 0000 0000 000000
2014-04-19 02:09:07,0.15,1.60,0.00,18.64,24.79,27.44,6.14,32.25,1014.66,2047.98,2838.08,2903.12,3108.66,350.93,329.28,21.37,0000 0000 0000 0000 000000
2014-04-19 02:10:07,0.13,1.61,0.00,18.66,24.80,27.38,6.10,32.42,1014.67,2047.98,2837.79,2903.02,3108.29,349.57,327.84,21.38,0000 0000 0000 0000 000000
2014-04-19 02:11:07,0.11,1.61,0.00,18.65,24.80,27.39,6.19,32.42,1014.66,2047.99,2837.36,2902.70,3108.10,351.44,329.52,21.38,0000 0000 0000 0000 000000
2014-04-19 02:12:08,0.22,1.61,0.00,18.67,24.80,27.39,6.18,32.17,1014.66,2047.99,2837.13,2902.28,3107.94,350.14,328.60,21.39,0000 0000 0000 0000 000000
2014-04-19 02:13:08,0.16,1.61,0.00,18.67,24.82,27.35,6.18,32.33,1014.66,2047.97,2836.84,2902.09,3107.48,349.21,326.82,21.39,0000 0000 0000 0000 000000
2014-04-19 02:14:08,0.15,1.61,0.00,18.67,24.82,27.37,6.08,32.46,1014.66,2047.93,2836.33,2901.84,3107.17,348.73,326.95,21.40,0000 0000 0000 0000 000000
2014-04-19 02:15:08,0.16,1.61,0.00,18.67,24.82,27.40,6.14,32.29,1014.64,2047.93,2836.10,2901.37,3106.97,350.97,329.05,21.41,0000 0000 0000 0000 000000
2014-04-19 02:16:09,0.18,1.61,0.00,18.66,24.83,27.37,6.07,32.13,1014.63,2047.93,2835.68,2901.13,3106.47,348.85,327.06,21.41,0000 0000 0000 0000 000000
2014-04-19 02:17:09,0.22,1.61,0.00,18.67,24.84,27.33,6.04,32.33,1014.57,2047.88,2835.25,2901.01,3106.16,349.86,327.98,21.42,0000 0000 0000 0000 000000
2014-04-19 02:18:09,0.08,1.61,0.00,18.69,24.85,27.33,6.14,32.21,1014.44,2047.78,2835.01,2900.57,3105.95,351.19,329.16,21.42,0000 0000 0000 0000 000000
2014-04-19 02:19:09,0.13,1.61,0.00,18.70,24.85,27.30,6.08,32.38,1014.41,2047.71,2834.51,2900.20,3105.47,349.48,327.65,21.43,0000 0000 0000 0000 000000
2014-04-19 02:20:10,0.18,1.61,0.00,18.71,24.86,27.30,6.06,32.21,1014.30,2047.60,2834.19,2900.06,3105.18,349.82,328.21,21.43,0000 0000 0000 0000 000000
2014-04-19 02:21:10,0.00,1.61,0.00,18.72,24.87,27.33,6.17,32.25,1014.32,2047.50,2834.06,2899.95,3105.05,350.73,328.30,21.44,0000 0000 0000 0000 000000
2014-04-19 02:22:10,0.01,1.61,0.00,18.72,24.87,27.38,6.14,32.13,1014.27,2047.46,2833.96,2899.58,3104.76,350.50,328.38,21.45,0000 0000 0000 0000 000000
2014-04-19 02:23:10,0.13,1.62,0.00,18.72,24.88,27.37,6.18,32.25,1014.21,2047.42,2833.53,2899.24,3104.32,350.61,328.51,21.45,0000 0000 0000 0000 000000
2014-04-19 02:24:11,0.19,1.62,0.00,18.72,24.89,27.29,6.08,32.33,1014.22,2047.41,2833.19,2899.09,3104.11,350.24,328.16,21.46,0000 0000 0000 0000 000000
2014-04-19 02:25:11,0.11,1.62,0.00,18.74,24.90,27.32,6.22,32.13,1014.19,2047.25,2832.99,2898.94,3103.87,350.13,327.68,21.46,0000 0000 0000 0000 000000
2014-04-19 02:26:11,-0.05,1.62,0.00,18.75,24.90,27.30,6.12,32.25,1014.18,2047.13,2832.60,2898.49,3103.37,349.82,327.88,21.47,0000 0000 0000 0000 000000
2014-04-19 02:27:11,0.19,1.62,0.00,18.75,24.90,27.29,6.09,32.38,1014.18,2047.07,2832.23,2898.18,3103.14,349.57,327.50,21.48,0000 0000 0000 0000 000000
2014-04-19 02:28:12,0.11,1.62,0.00,18.74,24.92,27.29,6.13,32.29,1014.18,2047.08,2832.05,2898.06,3103.03,349.20,327.14,21.48,0000 0000 0000 0000 000000
2014-04-19 02:29:12,0.07,1.62,0.00,18.74,24.92,27.22,6.16,32.50,1014.18,2047.05,2831.73,2897.94,3102.65,350.61,328.47,21.49,0000 0000 0000 0000 000000
2014-04-19 02:30:12,0.13,1.62,0.00,18.76,24.92,27.27,6.01,32.67,1014.18,2047.03,2831.34,2897.61,3102.25,349.65,327.56,21.49,0000 0000 0000 0000 000000
2014-04-19 02:31:12,0.20,1.62,0.00,18.77,24.93,27.39,6.11,32.67,1014.18,2047.03,2831.13,2897.25,3102.08,350.46,328.39,21.50,0000 0000 0000 0000 000000
2014-04-19 02:32:12,0.15,1.62,0.00,18.77,24.94,27.33,6.16,32.71,1014.16,2047.02,2831.03,2897.09,3101.97,350.20,327.86,21.50,0000 0000 0000 0000 000000
2014-04-19 02:33:13,0.05,1.62,0.00,18.76,24.95,27.32,6.08,32.79,1014.17,2047.03,2830.91,2897.02,3101.55,349.77,328.04,21.51,0000 0000 0000 0000 000000
2014-04-19 02:34:13,0.11,1.62,0.00,18.77,24.95,27.34,6.25,32.50,1014.16,2047.01,2830.49,2896.80,3101.20,351.32,329.11,21.52,0000 0000 0000 0000 000000
2014-04-19 02:35:13,0.17,1.62,0.00,18.79,24.96,27.42,6.03,32.54,1014.14,2047.00,2830.18,2896.38,3101.07,349.87,327.72,21.52,0000 0000 0000 0000 000000
2014-04-19 02:36:14,0.16,1.63,0.00,18.79,24.97,27.37,6.23,32.58,1014.16,2047.00,2829.97,2896.14,3100.95,350.06,327.91,21.53,0000 0000 0000 0000 000000